Regional Weather Roundup
Issued by NWS

Home | Current Version | Previous Version | Text Only | Print | Product List | Glossary Off
Versions: 1 2 3 4 5 6 7 8 9 10 11 12 13 14 15 16 17 18 19 20 21 22 23 24 25 26 27 28 29 30 31 32 33 34 35 36 37 38 39 40 41 42 43 44 45 46 47 48 49 50

000
ASUS43 KFSD 281310
RWRSD

WEATHER ROUNDUP FOR SOUTH DAKOTA
NATIONAL WEATHER SERVICE SIOUX FALLS SD
700 AM CST TUE FEB 28 2017

NOTE: "FAIR" INDICATES FEW OR NO CLOUDS BELOW 12,000 FEET WITH NO
SIGNIFICANT WEATHER AND/OR OBSTRUCTIONS TO VISIBILITY.


SDZ001>005-009-010-012>017-281400-
NORTHWEST AND NORTH CENTRAL SOUTH DAKOTA

CITY           SKY/WX    TMP DP  RH WIND       PRES   REMARKS
BUFFALO          N/A     20  17  88 E7        29.65R WCI  11
FAITH            N/A     22  21  96 NE9       29.72R WCI  12
MOBRIDGE       CLOUDY    25  18  74 NE10      29.77R WCI  15
$$

SDZ012>016-024>037-041>051-057-063-072>074-281400-
SOUTHWEST AND SOUTH CENTRAL SOUTH DAKOTA

CITY           SKY/WX    TMP DP  RH WIND       PRES   REMARKS
RAPID CTY ARPT CLOUDY    25  23  92 E5        29.64R WCI  19
PIERRE         CLOUDY    26  23  88 NE3       29.76R
CUSTER         CLEAR     15   8  73 W10       29.55F WCI   2
ELLSWORTH AFB  FOG       25  25 100 NE8       29.64  VSB 3/8 WCI  16
PHILIP         CLOUDY    26  26 100 E10       29.71F FOG     WCI  16
PINE RIDGE     PTCLDY    23  17  78 S3        29.69R
SPEARFISH      CLOUDY    21  19  93 NW5       29.65R WCI  15
WINNER         CLOUDY    33  31  92 N8        29.73R WCI  26
$$

SDZ004>011-016>023-039-040-281400-
NORTHEAST SOUTH DAKOTA

CITY           SKY/WX    TMP DP  RH WIND       PRES   REMARKS
ABERDEEN       CLOUDY    19  14  81 N16       29.80R WCI   4
WATERTOWN      CLOUDY    25  23  92 NE8       29.73R WCI  16
BROOKINGS      CLOUDY    31  28  89 NE9       29.69R WCI  23
SISSETON         N/A     23  21  92 N16       29.79R WCI  10
$$

SDZ017-020-022-023-036>040-048>070-281400-
SOUTHEAST SOUTH DAKOTA

CITY           SKY/WX    TMP DP  RH WIND       PRES   REMARKS
SIOUX FALLS    CLOUDY    32  30  92 NE12      29.66F WCI  23
HURON          CLOUDY    27  26  96 N13       29.74F WCI  16
CHAMBERLAIN    CLOUDY    30  29  95 N7        29.73S WCI  23
MITCHELL       MOCLDY    32  31  96 N13       29.72R WCI  22
YANKTON        CLOUDY    34  28  80 N8        29.65S WCI  27
$$

ABBREVIATIONS USED IN REMARKS
   TC - TEMPERATURE IN CELSIUS
  WCI - WIND CHILL INDEX
   HX - HEAT INDEX
  VSB - VISIBILITY




USA.gov is the U.S. government's official web portal to all federal, state and local government web resources and services.